Location: Conway Observatory, Indiana
(41.2910°N, 87.4210°W)
Time: 03:48:53
(UTC-05:00)

Hubble Space Telescope - Visible Passes

Search period start: 23 May 2017 00:00
Search period end: 02 June 2017 00:00
Orbit: 538 x 541 km, 28.5° (Epoch: 22 May)

Date Brightness Start Highest point End Pass type
(mag) Time Alt. Az. Time Alt. Az. Time Alt. Az.
29 May 2.9 21:06:38 10° S 21:07:08 10° SSE 21:07:39 10° SSE visible
30 May 2.9 20:55:34 10° S 20:56:56 11° S 20:58:17 10° SSE visible
31 May 2.8 20:44:59 10° SSW 20:46:44 12° S 20:48:28 10° SSE visible
01 Jun 3.2 22:15:16 10° SSW 22:15:28 10° SSW 22:15:28 10° SSW visible
